User: anonymous   Login
Location: Unspecified
(0.0000°N, 0.0000°E)
Time: 02:09:34
(UTC+00:00)
Language:

TBA - TO BE ASSIGNED - Orbit

View from above orbital plane
View from above orbital plane
View from above satellite
View from above satellite

Ground track
Ground track

The orbit is defined by the following mean orbital elements,

1 67994U          26145.25821591 +.00000000 +00000-0 +66187-3 0 00000
2 67994  43.0035 336.5046 0001473 267.4044  92.6639 15.27592378    05
Epoch (UTC): 25 May 2026 06:11:49
Eccentricity: 0.0001473
inclination: 43.0035°
perigee height: 482 km
apogee height: 484 km
right ascension of ascending node: 336.5046°
argument of perigee: 267.4044°
revolutions per day: 15.27592378
mean anomaly at epoch: 92.6639°

The dashed part of the orbit path shows where the satellite is in the earth's shadow,  

DLR